Home > Time Zones > World Clock > Weather > U.S.A. > Mesa > Past weeks

Flag for U.S.A. Weather past 2 weeks in Mesa, Arizona, U.S.A.

Now
50 °F

Passing clouds.


Feels Like: 50 °F
Forecast: 56 / 72 °F
Wind: No wind

Location: Williams Gateway Airport

Current Time: Jan 27, 2015 at 3:51:30 AM

Latest Report: Jan 27, 2015 at 3:15 AM


Visibility: 10 mi

Pressure: 30.21 "Hg

Humidity: 94%

Dew point: 48 °F

Location of MesaLocation

Historic Weather in Mesa — Graph

°F

Mesa temperature yesterday

Maximum temperature yesterday: 70 °F (at 1:47 PM)
Minimum temperature yesterday: 45 °F (at 1:15 AM)
Average temperature yesterday: 53 °F

Past Weeks' High & Low Weather Summary

 TemperatureHumidityPressure
High73 °F (Jan 24, 1:47 PM)100% (Jan 12, 4:15 AM)30.36 "Hg (Jan 12, 4:15 AM)
Low36 °F (Jan 23, 6:47 AM)8% (Jan 24, 2:50 PM)29.85 "Hg (Jan 21, 4:35 AM)
Average51 °F59%30.14 "Hg
* Reported Jan 12 2:15 AM — Jan 27 2:55 AM, Mesa, Weather by CustomWeather, © 2014

Note: Actual official high and low records may vary slightly from our data, if they occured in-between our weather recording intervals... More about our weather records

Advertising

Mesa weather history for previous 24 hours

 ConditionsComfort  
Time TempWeatherWind HumidityBarometerVisibility
2:55 AM
Jan 27
50 °FPassing clouds.No wind100%30.21 "Hg10 mi
2:35 AM52 °FPassing clouds.No wind94%30.20 "Hg10 mi
2:15 AM52 °FPassing clouds.No wind88%30.20 "Hg10 mi
1:55 AM52 °FMostly cloudy.No wind88%30.20 "Hg10 mi
1:35 AM52 °FMostly cloudy.No wind88%30.19 "Hg10 mi
1:15 AM52 °FMostly cloudy.3 mph88%30.19 "Hg10 mi
12:55 AM52 °FMostly cloudy.No wind82%30.20 "Hg10 mi
12:35 AM52 °FMostly cloudy.No wind88%30.20 "Hg10 mi
12:15 AM52 °FPartly cloudy.No wind82%30.19 "Hg10 mi
11:52 PM
Jan 26
52 °FPassing clouds.3 mph88%30.20 "Hg20 mi
10:47 PM54 °FLight rain. Passing clouds.7 mph77%30.19 "Hg8 mi
9:47 PM55 °FLight rain. Passing clouds.3 mph72%30.20 "Hg8 mi
8:47 PM57 °FMostly cloudy.No wind63%30.16 "Hg20 mi
7:47 PM61 °FPartly cloudy.5 mph42%30.14 "Hg20 mi
6:47 PM61 °FOvercast.3 mph39%30.12 "Hg20 mi
5:50 PM63 °FPartly sunny.7 mph34%30.11 "Hg20 mi
3:47 PM68 °FBroken clouds.No wind26%30.10 "Hg45 mi
2:51 PM68 °FBroken clouds.6 mph24%30.11 "Hg45 mi
1:47 PM70 °FBroken clouds.6 mph21%30.12 "Hg45 mi
12:47 PM66 °FBroken clouds.No wind28%30.16 "Hg45 mi
11:47 AM63 °FBroken clouds.7 mph30%30.18 "Hg45 mi
10:47 AM61 °FScattered clouds.No wind31%30.19 "Hg45 mi
9:47 AM57 °FBroken clouds.No wind39%30.16 "Hg45 mi
8:47 AM46 °FBroken clouds.6 mph53%30.14 "Hg45 mi
7:47 AM45 °FScattered clouds.5 mph53%30.13 "Hg45 mi
5:47 AM45 °FPassing clouds.No wind53%30.10 "Hg20 mi
4:35 AM45 °FClear.5 mph61%30.10 "Hg10 mi
4:15 AM45 °FClear.3 mph57%30.10 "Hg10 mi
3:55 AM45 °FClear.6 mph53%30.10 "Hg10 mi
3:35 AM46 °FClear.6 mph50%30.11 "Hg10 mi
3:15 AM48 °FClear.7 mph46%30.12 "Hg10 mi
Weather by CustomWeather, © 2014

See weather overviewHow to use our weather pages